SCP
0 0 0 0 0 0 0 0 0 0 0 0 0 0 0 0 0 0 0 0 0 0 0 0 0 0 0 0 0 0 0 0 0 0 0 0 0 0 0 0 0 0 0 0 0 0 0 0 0 0 0 0 0 0
0 0 0 0 0 0 0 0 0 0 0 0 0 0 0 0 0 0 0 0 0 0 0 0 0 0 0 0 0 0 0 0 0 0 0 0 0 0 0 0 0 0 0 0 0 0 0 0 0 0 0 0 0 0
0 0 0 0 0 0 0 0 0 0 0 0 0 0 0 0 0 0 0 0 0 0 0 0 0 0 0 0 0 0 0 0 0 0 0 0 0 0 0 0 0 0 0 0 0 0 0 0 0 0 0 0 0 0
0 0 0 0 0 0 0 0 0 0 0 0 0 0 0 -0 0 0 0 0 0 0 0 0 -0 0 0 0 0 0 0 0 0 0 0 0 0 0 0 0 0 0 0 0 0 0 0 0 0 0 0 0 0 0
0 0 0 0 0 0 0 0 0 0 0 0 0 0 -0 -0 -0 0 0 0 0 0 0 0 0 0 0 0 -0 0 0 0 0 0 0 0 0 0 0 0 0 0 0 0 0 0 0 0 0 0 0 0 0 0
0 0 0 0 0 0 0 0 0 0 0 0 0 0 0 0 0 0 0 0 0 0 0 0 0 0 0 0 0 0 0 0 0 0 0 0 0 0 0 0 0 0 0 0 0 0 0 0 0 0 0 0 0 0
0 0 0 0 0 0 0 0 0 0 0 0 0 0 0 0 0 0 0 0 0 0 0 0 0 0 0 0 0 0 0 0 0 0 0 0 0 0 0 0 0 0 0 0 0 0 0 0 0 0 0 0 0 0
0 0 0 0 0 0 0 0 0 0 0 0 0 0 0 0 0 0 0 0 -0 -0 0 0 0 0 0 0 0 0 0 0 0 0 0 0 0 0 0 -0 0 0 0 0 0 0 0 0 0 0 0 0 0 0
0 0 0 0 0 0 0 0 0 -0 0 0 0 0 0 0 0 0 0 0 0 0 0 0 0 0 0 0 0 0 0 0 0 0 0 0 0 0 -0 0 0 0 0 0 0 0 0 0 0 0 0 0 0 0
0 0 0 0 0 0 0 0 0 0 0 0 0 0 0 0 0 0 0 0 0 0 -0 -0 0 0 0 0 0 0 0 0 0 0 0 0 0 0 0 0 0 0 0 0 0 0 0 0 0 0 0 0 0 0
0 0 0 0 0 0 0 0 -0 -0 0 0 0 0 0 -0 -0 0 0 0 0 0 -0 -0 -0 0 0 0 0 -0 0 0 0 0 0 0 0 0 0 0 0 0 0 0 0 0 0 0 0 0 0 0 0 0
0 0 0 0 0 0 0 0 0 0 0 0 0 -0 -0 -0 -0 0 0 0 0 0 0 0 0 0 0 0 0 0 0 0 0 0 0 0 0 0 0 0 0 0 0 0 0 0 0 0 0 0 0 0 0 0
0 0 0 0 0 0 0 0 0 0 0 -0 -0 -0 0 0 0 0 -0 -0 -0 -0 -0 0 0 0 0 0 0 0 0 0 0 0 0 0 -0 0 0 0 0 0 0 -0 -0 0 0 0 0 0 0 0 0 0
-0 -0 -0 -0 -0 0 0 -0 -0 0 -0 0 0 0 0 0 0 0 0 -0 -0 -0 -0 -0 0 0 0 0 0 0 0 0 0 0 0 0 -0 0 0 0 0 0 0 0 0 0 -0 0 0 0 0 0 0 0
-0 -0 0 0 0 -0 -0 0 -0 -0 0 0 0 0 0 0 0 0 -0 -0 -0 -0 0 0 0 0 0 0 0 0 0 0 0 0 0 0 -0 0 0 0 0 0 0 0 -0 -0 -0 -0 -0 0 0 0 0 0
-0 0 0 -0 0 -0 -0 -0 -0 0 -0 -0 -0 0 0 -0 0 -0 0 0 -0 -0 0 0 0 0 0 0 0 0 0 0 0 -0 0 0 0 0 0 0 0 0 0 -0 -0 -0 -0 0 0 0 0 0 0 0
0 0 -0 -0 -0 0 -0 -0 0 0 -0 0 0 0 0 0 0 -0 -0 -0 -0 0 0 0 0 0 0 0 0 0 0 0 -0 0 0 0 0 0 0 0 -0 -0 -0 -0 -0 0 0 0 0 0 0 0 0 0
0 0 -0 -0 0 -0 -0 0 0 0 0 0 0 0 0 0 0 -0 -0 0 -0 0 0 0 0 0 0 0 0 0 0 0 0 0 0 0 0 0 -0 -0 -0 -0 -0 -0 -0 0 0 0 0 0 0 0 0 0
0 0 0 0 -0 0 0 0 0 0 0 0 0 0 0 0 0 0 0 0 0 0 0 0 0 0 0 0 0 0 0 0 0 0 0 0 0 0 -0 -0 -0 -0 -0 -0 -0 0 0 0 0 0 0 0 0 0
-0 0 0 0 0 0 0 0 0 0 0 0 0 0 -0 0 0 -0 0 -0 0 0 0 -0 0 -0 -0 -0 -0 0 0 0 0 0 0 0 0 0 0 -0 -0 -0 -0 0 0 0 0 0 0 0 0 0 0 0
0 0 -0 0 0 0 0 0 0 0 0 0 0 0 0 -0 0 0 0 -0 0 0 0 0 0 0 -0 -0 -0 0 0 0 0 0 0 0 0 0 0 -0 -0 -0 0 0 0 0 0 0 0 0 0 0 0 0
0 0 0 0 0 0 0 0 0 0 0 -0 -0 -0 0 -0 -0 0 0 0 0 0 0 0 -0 0 0 0 0 0 0 0 0 0 0 0 0 -0 -0 -0 -0 0 0 -0 -0 -0 0 0 0 0 0 0 0 0
0 0 0 0 0 0 -0 -0 -0 -0 -0 -0 0 -0 -0 0 -0 0 0 0 0 0 0 0 0 0 0 0 0 0 0 0 0 0 0 0 -0 -0 -0 -0 -0 -0 -0 -0 -0 0 0 0 0 0 0 0 -0 -0
0 0 0 0 0 0 0 0 0 -0 0 0 0 0 0 0 0 0 0 0 0 0 0 -0 0 0 0 0 0 0 0 0 -0 -0 -0 -0 -0 -0 -0 -0 -0 -0 -0 -0 0 0 0 -0 -0 -0 -0 -0 -0 0
0 0 0 0 0 0 0 0 0 0 0 0 0 0 0 0 0 0 0 0 0 0 0 -0 0 0 0 0 0 0 0 0 0 -0 -0 -0 0 0 0 0 -0 -0 -0 -0 0 0 0 0 0 0 0 0 0 0
0 0 0 0 0 0 0 0 0 0 0 0 0 0 0 0 0 0 0 0 0 0 -0 -0 0 0 -0 -0 -0 0 0 0 0 0 -0 -0 -0 -0 -0 -0 -0 0 0 0 0 0 0 0 0 0 0 0 0 0
0 0 0 0 0 0 0 0 0 0 0 0 0 0 0 0 0 0 0 0 0 0 0 0 0 0 -0 -0 -0 -0 0 0 0 0 0 0 -0 -0 -0 0 0 0 0 0 0 0 -0 0 0 0 0 0 0 0
0 0 0 0 0 0 0 0 0 0 0 0 0 0 -0 0 0 0 0 0 0 -0 0 0 0 0 0 0 0 -0 -0 0 0 0 0 0 0 0 0 0 0 0 0 -0 -0 0 0 0 -0 0 0 0 0 0
0 0 0 0 0 0 0 0 -0 -0 -0 0 0 -0 0 0 0 0 0 0 0 0 0 0 0 0 0 0 0 -0 -0 -0 -0 -0 -0 0 0 0 0 0 0 -0 0 0 0 0 0 0 -0 -0 -0 0 -0 -0
0 0 0 -0 0 -0 0 0 -0 -0 0 0 0 -0 0 0 0 0 0 0 0 0 0 0 0 0 -0 -0 -0 -0 -0 -0 -0 -0 0 0 0 0 0 0 0 0 0 0 0 0 0 0 0 0 -0 0 0 0
0 0 -0 -0 -0 0 -0 0 -0 -0 0 0 -0 -0 0 0 0 0 0 0 0 0 0 0 -0 -0 -0 -0 -0 -0 -0 -0 -0 -0 -0 0 0 0 0 0 0 0 0 0 0 0 0 0 0 -0 0 0 0 0
0 0 -0 0 0 0 0 0 0 0 0 0 0 -0 -0 0 0 0 0 -0 -0 -0 0 0 0 0 0 0 0 0 0 0 0 0 0 0 0 0 0 0 0 0 0 0 0 0 0 0 0 0 0 0 0 0
0 0 0 0 0 0 0 0 0 0 0 0 0 0 0 0 0 0 0 0 -0 -0 -0 -0 0 0 -0 -0 -0 -0 0 0 0 0 0 0 0 0 0 0 0 0 0 0 0 0 0 0 0 0 0 0 0 0
Wind_Speed_500mb
62 65 68 70 71 72 70 66 61 58 54 55 47 44 42 38 39 31 36 31 32 32 50 48 53 38 29 14 8 12 8 6 7 12 10 10 10 12 6 8 14 20 19 11 10 14 20 32 20 12 3 6 13 17
70 72 75 78 79 79 73 66 63 61 63 52 51 47 43 38 36 30 42 33 31 42 34 27 33 44 42 38 30 14 15 7 16 6 7 5 6 8 10 7 10 12 12 11 18 11 3 46 15 27 17 18 18 17
77 82 85 86 84 77 71 66 64 61 60 54 51 48 44 40 38 36 41 35 37 40 56 64 59 66 73 73 65 18 22 15 7 5 8 3 6 9 11 12 11 13 18 8 8 15 27 33 41 36 28 26 18 18
84 87 86 81 79 72 70 70 69 61 58 53 50 48 45 42 39 37 43 37 37 25 14 21 25 49 51 44 59 78 60 31 23 22 6 4 8 17 7 3 10 6 17 19 15 23 23 34 32 25 21 22 20 18
90 86 86 85 85 84 78 74 71 65 55 52 49 47 42 40 40 40 46 51 45 43 10 15 39 37 36 42 36 37 71 59 24 11 7 9 7 8 5 4 11 19 20 13 11 16 11 8 4 9 18 20 17 15
90 88 91 92 85 86 83 77 72 65 53 49 46 45 40 41 40 36 18 28 51 61 20 8 18 34 36 55 62 41 53 48 31 16 9 12 12 13 9 8 11 37 53 52 33 22 19 12 8 10 15 17 14 13
91 94 88 87 86 84 76 72 69 62 52 44 44 41 42 40 35 38 17 10 5 11 22 8 10 15 35 32 40 39 49 29 22 11 12 11 14 18 7 18 12 21 32 36 32 29 12 22 8 16 16 13 10 13
88 86 89 85 81 75 69 63 58 55 49 41 41 38 38 37 43 56 61 57 61 36 17 7 9 8 28 17 15 30 24 22 24 12 10 10 10 10 12 14 34 47 41 28 34 40 21 13 18 18 18 14 11 12
82 82 78 73 68 59 52 44 43 44 42 35 25 29 35 37 31 56 39 39 43 32 7 8 7 7 25 16 15 14 16 6 17 8 9 18 9 15 23 29 31 31 24 24 26 27 28 24 20 22 18 15 12 12
74 70 68 60 50 41 30 18 25 38 21 16 17 9 10 14 25 30 12 16 31 17 19 7 7 7 21 11 7 12 12 6 8 9 19 8 15 45 55 57 40 26 23 29 29 35 36 31 25 23 20 15 11 10
69 69 57 44 38 25 12 9 12 20 17 10 8 10 18 24 18 12 10 11 14 7 15 15 27 7 10 5 6 11 6 7 8 8 14 6 10 27 68 79 77 62 45 32 39 27 38 30 31 29 24 17 10 6
54 52 47 40 31 20 15 8 17 17 7 5 9 26 14 8 11 8 7 7 8 7 8 6 14 19 8 8 4 9 6 7 7 22 9 7 10 24 26 20 20 52 62 52 41 25 27 28 26 30 25 17 9 4
48 46 38 33 28 25 21 15 7 4 7 10 4 6 6 8 9 8 9 6 6 8 16 14 7 12 8 2 5 2 6 6 20 8 7 10 11 3 0 11 14 18 38 49 43 33 25 21 30 31 26 18 10 5
38 32 34 28 23 18 13 9 8 9 7 6 6 8 9 8 9 6 5 4 7 6 21 22 8 4 5 5 4 6 5 5 6 8 9 10 27 10 9 14 16 23 34 42 40 41 32 34 40 32 24 19 14 11
30 26 31 30 28 21 17 11 9 9 6 7 6 8 9 12 15 15 14 9 5 15 29 12 7 4 3 4 5 1 5 6 8 9 6 8 19 18 20 18 23 34 37 42 45 45 47 47 39 35 28 22 17 17
30 26 29 31 27 25 25 20 22 19 8 8 11 9 13 13 12 7 7 10 8 22 21 5 5 5 6 4 10 11 5 8 4 5 3 4 14 24 28 27 34 40 43 48 51 52 46 36 35 34 30 22 17 16
37 32 37 35 28 28 32 22 6 9 8 8 10 21 31 26 9 3 3 3 22 26 5 4 6 5 6 6 7 8 8 4 10 11 6 6 25 36 36 36 39 43 51 58 57 47 37 34 34 32 29 23 15 14
41 38 33 27 27 28 17 5 7 7 8 13 8 19 10 5 7 7 8 4 16 10 6 2 4 4 4 5 4 4 5 6 8 7 16 26 35 37 36 40 44 51 56 53 45 40 34 35 33 30 26 20 14 11
40 36 24 21 19 19 6 5 4 7 12 16 16 13 9 7 8 4 11 20 8 8 4 4 6 5 4 6 10 26 9 4 9 15 23 26 30 33 35 39 45 49 49 43 43 38 28 27 25 24 21 17 12 9
33 19 13 17 16 7 7 7 8 9 9 9 14 14 16 13 11 7 12 4 5 2 3 4 5 5 8 19 27 29 5 14 16 10 16 22 25 29 33 39 43 43 41 45 38 37 29 23 23 19 16 14 11 6
14 8 11 14 9 4 8 8 8 8 12 10 13 21 11 13 7 3 5 10 3 5 4 8 23 34 33 34 29 11 26 18 9 11 12 16 18 25 33 32 37 38 40 44 41 34 17 19 17 15 15 17 13 7
21 19 15 9 4 5 9 9 12 19 8 12 14 13 8 8 8 6 4 2 1 9 10 25 40 40 17 48 57 37 31 20 19 20 21 20 20 20 23 28 33 36 36 38 42 24 22 16 10 9 8 9 15 10
22 13 9 5 5 6 10 9 6 5 5 7 10 6 5 5 7 5 3 3 5 21 29 33 31 16 13 28 22 22 22 22 27 25 22 24 22 21 21 23 30 37 35 43 29 23 17 10 14 13 14 20 18 15
11 5 4 5 5 8 8 5 7 7 7 5 5 5 6 8 12 4 4 11 30 42 49 44 36 28 19 16 17 14 12 17 24 28 26 29 29 24 20 23 27 33 28 35 27 20 16 14 13 18 21 20 17 20
6 4 4 7 4 5 6 7 6 4 5 4 4 3 3 6 2 5 5 19 41 47 50 42 36 31 24 21 22 20 15 13 16 21 23 25 32 31 29 26 24 25 26 22 19 18 17 16 17 21 22 17 21 26
5 5 6 5 6 5 4 6 4 5 5 4 2 8 10 4 6 7 8 33 38 44 41 40 38 37 26 20 13 10 12 12 14 14 17 17 21 22 21 18 17 14 12 13 13 14 17 22 25 23 19 22 27 32
5 2 2 7 8 13 8 10 10 5 6 8 4 7 7 7 8 7 23 28 40 34 25 26 28 28 22 19 10 5 7 15 15 11 14 17 23 22 16 9 6 7 4 10 12 12 21 29 26 23 26 30 30 29
7 5 5 12 6 6 3 5 7 10 6 9 4 9 5 8 7 15 25 36 31 19 13 17 20 23 26 21 15 15 17 15 9 3 17 31 30 24 18 6 8 10 14 15 15 20 23 24 25 28 32 33 33 32
6 5 5 6 5 6 8 8 8 13 13 6 4 5 5 8 19 18 20 19 17 20 25 25 22 22 25 25 17 17 20 19 19 21 28 30 34 23 16 7 12 17 15 16 24 25 22 23 27 30 32 33 33 33
3 3 3 4 4 7 9 9 13 27 32 28 21 22 23 24 30 24 18 17 22 30 32 32 33 31 31 32 33 24 14 13 17 13 13 16 16 11 9 6 9 10 11 14 27 35 31 31 34 35 34 33 32 31
3 5 4 4 5 12 21 26 24 23 22 18 21 15 10 6 34 43 39 35 33 39 39 41 43 41 39 32 27 24 30 23 16 13 18 16 17 15 5 8 9 7 11 12 19 26 31 35 36 36 35 32 29 25
5 4 5 4 6 22 17 5 3 0 2 5 9 10 9 9 9 17 38 40 43 49 46 41 40 35 29 28 30 36 38 31 23 14 7 11 11 12 12 13 13 12 17 16 15 19 23 28 32 34 32 30 26 23
7 9 13 9 6 5 9 7 3 2 3 3 4 6 8 8 8 11 16 23 30 35 36 36 34 31 28 27 27 25 23 23 24 24 15 5 14 20 20 16 17 17 24 23 17 15 18 23 26 28 29 28 25 22
Wind_Direction_500mb
312 313 314 314 314 313 308 302 297 296 296 297 290 290 288 284 283 282 275 263 262 262 264 256 260 249 257 260 236 4 147 170 152 189 194 191 207 201 195 193 182 176 181 195 196 234 257 143 134 200 277 239 246 252
310 311 311 311 310 308 306 302 297 292 292 292 287 287 284 282 279 276 272 273 262 257 257 266 262 252 233 254 255 254 273 257 170 158 202 143 172 183 205 225 197 206 197 183 204 211 204 189 212 218 261 275 271 256
310 310 310 308 306 303 300 297 298 296 288 288 284 283 277 275 275 270 267 267 265 268 276 257 251 258 258 253 241 212 221 238 223 141 137 107 216 167 186 220 208 224 197 231 188 228 228 227 239 258 259 263 259 259
310 309 308 307 307 305 297 292 290 292 287 281 280 278 274 272 271 267 263 260 254 258 272 279 267 250 253 247 229 228 223 250 254 233 115 185 229 197 211 248 217 195 167 215 245 266 260 256 251 263 256 251 247 257
311 313 310 307 302 297 294 291 286 284 283 276 275 276 272 271 272 274 268 260 245 231 277 282 300 265 251 229 231 243 232 221 209 161 174 212 214 175 193 243 228 190 212 206 224 198 244 245 273 257 236 238 243 247
313 309 306 306 305 296 289 283 282 280 276 270 269 271 268 269 273 278 283 261 242 231 246 260 272 255 253 237 237 233 222 205 187 173 194 216 216 206 218 238 247 219 228 231 241 255 211 243 260 232 226 232 240 256
318 316 313 309 304 296 290 281 275 274 269 263 263 267 263 269 260 241 226 223 159 249 223 250 246 248 220 204 205 198 202 200 188 187 212 194 195 190 249 245 196 234 236 232 222 213 235 244 231 211 214 223 243 266
324 321 317 312 307 300 291 282 269 267 266 255 257 267 268 266 263 260 257 256 265 270 233 224 256 234 185 190 166 183 170 170 189 199 188 180 154 213 250 246 244 245 244 238 218 217 227 242 200 188 201 224 252 269
328 325 324 322 316 312 293 266 267 259 247 248 258 270 276 267 257 270 284 264 255 228 261 215 228 229 178 190 149 144 153 166 181 197 197 170 181 220 229 237 239 232 220 217 204 201 204 206 194 199 207 227 243 271
333 330 329 330 325 322 312 289 266 256 225 217 254 260 243 225 256 270 207 215 200 214 213 244 240 261 182 157 142 144 163 167 182 197 158 226 245 245 242 242 240 229 221 209 197 199 199 204 196 195 205 218 236 256
339 337 339 340 344 345 351 315 259 182 174 210 204 229 243 254 283 231 221 188 183 220 208 230 211 242 229 181 141 200 167 166 190 173 192 223 248 236 242 239 239 237 228 220 216 214 209 207 200 199 206 210 222 253
351 359 4 6 7 360 343 21 129 156 150 184 267 291 288 226 232 228 200 193 207 231 188 218 227 206 241 256 153 162 188 188 199 141 194 247 258 257 233 233 231 226 220 213 213 210 203 213 212 202 194 191 192 215
341 349 358 7 22 37 52 67 68 343 274 289 254 253 228 226 244 234 187 184 210 203 189 189 186 176 202 173 42 121 245 199 136 176 212 237 253 268 179 187 205 199 192 197 200 201 201 192 181 186 176 169 155 124
340 350 354 354 353 350 344 328 305 288 298 264 237 253 213 212 245 231 267 254 220 184 169 170 149 172 132 191 173 243 226 146 216 222 234 244 251 231 185 165 169 162 167 174 175 186 189 174 162 160 156 142 125 92
338 335 348 5 1 349 338 325 288 277 279 269 231 252 237 274 277 272 266 260 219 168 159 145 116 114 150 193 217 216 247 225 230 224 230 296 237 175 167 163 159 155 154 157 167 167 164 161 161 153 146 134 114 79
339 338 340 346 341 337 328 306 287 287 230 242 242 264 253 263 272 254 258 232 181 164 164 216 160 190 170 225 193 209 228 237 255 246 283 268 159 161 157 148 145 147 151 154 158 151 145 152 159 157 147 133 110 77
319 324 332 333 328 324 318 314 264 232 239 235 246 258 252 271 266 260 265 358 159 156 219 223 212 185 141 207 212 207 227 308 311 319 304 191 161 153 151 143 145 145 144 142 143 145 147 156 163 160 152 144 123 85
313 321 328 334 325 329 329 287 280 268 258 265 284 294 278 255 13 39 7 321 178 214 176 282 327 240 251 224 211 293 329 359 16 63 107 135 148 148 148 145 147 149 150 150 151 148 147 156 162 163 164 155 139 100
315 319 326 331 319 324 303 288 270 275 261 282 293 302 289 273 244 185 11 6 261 248 223 243 258 227 244 277 320 344 352 43 84 102 115 136 145 148 152 154 154 157 162 163 154 149 145 156 164 163 164 162 152 120
309 303 308 311 308 301 288 277 271 269 279 307 307 319 304 292 307 264 240 253 48 302 212 226 255 291 284 304 307 324 276 115 133 118 114 134 150 159 157 158 163 167 168 160 155 155 146 171 165 172 178 175 158 107
330 324 314 323 312 269 263 295 267 253 292 288 305 326 302 313 304 295 244 211 67 357 297 287 290 316 298 274 278 236 128 121 238 224 172 142 157 172 168 172 181 180 171 169 165 163 180 174 173 179 183 179 172 144
342 335 332 358 306 292 266 248 262 295 278 293 314 318 308 328 339 357 98 82 57 248 255 301 312 315 16 116 124 115 111 107 104 113 118 116 118 133 155 176 178 177 171 177 161 181 187 183 187 180 179 192 169 157
337 336 320 322 288 259 272 295 285 277 279 299 317 307 307 326 352 339 313 130 257 3 1 357 345 18 145 156 149 132 122 107 94 90 103 102 113 122 129 150 169 167 162 157 169 185 183 181 180 184 192 180 167 150
334 302 287 287 264 278 301 263 247 268 277 289 305 308 330 321 332 358 18 10 351 8 11 13 21 46 83 86 87 93 122 112 102 95 103 108 107 104 116 128 141 144 148 165 183 190 183 194 192 190 182 171 163 152
305 248 249 273 259 298 298 303 287 282 288 321 277 295 316 325 4 41 31 353 355 4 12 21 30 27 28 50 56 60 80 114 104 108 117 126 124 119 116 126 145 159 176 192 203 206 206 198 182 175 168 168 161 151
266 223 207 353 296 285 299 292 295 289 276 256 311 337 359 26 44 47 3 340 347 357 5 14 18 10 8 7 11 59 64 105 122 124 138 147 158 153 153 153 167 186 196 205 222 216 189 173 162 158 158 156 156 151
286 270 231 274 272 280 271 271 274 296 1 7 38 9 12 50 38 2 335 345 339 354 15 26 25 14 12 17 27 57 120 135 137 150 142 162 171 173 177 186 232 258 208 162 156 155 163 157 154 154 151 149 150 151
253 275 276 314 283 311 279 311 10 12 6 9 45 33 57 19 358 327 323 338 351 8 36 38 23 29 33 40 62 101 116 101 62 321 182 160 155 157 161 154 14 139 139 132 139 139 152 153 151 152 145 138 139 141
259 275 321 332 350 20 36 2 16 20 352 36 65 59 44 24 2 348 351 3 35 65 80 72 63 47 49 51 72 88 96 91 101 120 130 137 147 153 157 106 91 117 128 143 134 129 138 144 148 147 142 140 140 138
255 348 82 29 17 26 17 63 92 92 89 87 92 91 77 56 39 42 48 61 68 73 74 74 64 56 56 57 58 59 80 96 132 147 131 145 143 151 183 165 104 119 137 145 151 144 146 150 152 153 152 151 149 147
117 93 99 56 61 93 120 114 110 107 102 91 85 72 50 78 52 52 58 68 77 78 73 67 62 58 57 55 59 66 63 66 87 146 184 222 225 206 157 162 165 161 160 145 164 163 164 165 166 165 166 164 161 157
64 90 126 102 100 149 129 101 149 341 332 36 41 62 49 31 55 32 37 51 58 59 58 57 54 54 53 57 56 59 58 52 51 62 158 209 207 198 192 176 160 177 177 166 164 172 175 181 180 180 179 178 176 174
109 108 120 118 151 201 158 154 134 75 57 67 87 64 45 39 63 30 35 41 44 52 50 44 43 45 52 55 54 52 48 45 40 33 21 324 238 228 222 211 197 179 175 178 172 168 179 189 192 193 194 193 193 193
Wind_Speed_850mb
62 65 68 70 71 72 70 66 61 58 54 55 47 44 42 38 39 31 36 31 32 32 50 48 53 38 29 14 8 12 8 6 7 12 10 10 10 12 6 8 14 20 19 11 10 14 20 32 20 12 3 6 13 17
70 72 75 78 79 79 73 66 63 61 63 52 51 47 43 38 36 30 42 33 31 42 34 27 33 44 42 38 30 14 15 7 16 6 7 5 6 8 10 7 10 12 12 11 18 11 3 46 15 27 17 18 18 17
77 82 85 86 84 77 71 66 64 61 60 54 51 48 44 40 38 36 41 35 37 40 56 64 59 66 73 73 65 18 22 15 7 5 8 3 6 9 11 12 11 13 18 8 8 15 27 33 41 36 28 26 18 18
84 87 86 81 79 72 70 70 69 61 58 53 50 48 45 42 39 37 43 37 37 25 14 21 25 49 51 44 59 78 60 31 23 22 6 4 8 17 7 3 10 6 17 19 15 23 23 34 32 25 21 22 20 18
90 86 86 85 85 84 78 74 71 65 55 52 49 47 42 40 40 40 46 51 45 43 10 15 39 37 36 42 36 37 71 59 24 11 7 9 7 8 5 4 11 19 20 13 11 16 11 8 4 9 18 20 17 15
90 88 91 92 85 86 83 77 72 65 53 49 46 45 40 41 40 36 18 28 51 61 20 8 18 34 36 55 62 41 53 48 31 16 9 12 12 13 9 8 11 37 53 52 33 22 19 12 8 10 15 17 14 13
91 94 88 87 86 84 76 72 69 62 52 44 44 41 42 40 35 38 17 10 5 11 22 8 10 15 35 32 40 39 49 29 22 11 12 11 14 18 7 18 12 21 32 36 32 29 12 22 8 16 16 13 10 13
88 86 89 85 81 75 69 63 58 55 49 41 41 38 38 37 43 56 61 57 61 36 17 7 9 8 28 17 15 30 24 22 24 12 10 10 10 10 12 14 34 47 41 28 34 40 21 13 18 18 18 14 11 12
82 82 78 73 68 59 52 44 43 44 42 35 25 29 35 37 31 56 39 39 43 32 7 8 7 7 25 16 15 14 16 6 17 8 9 18 9 15 23 29 31 31 24 24 26 27 28 24 20 22 18 15 12 12
74 70 68 60 50 41 30 18 25 38 21 16 17 9 10 14 25 30 12 16 31 17 19 7 7 7 21 11 7 12 12 6 8 9 19 8 15 45 55 57 40 26 23 29 29 35 36 31 25 23 20 15 11 10
69 69 57 44 38 25 12 9 12 20 17 10 8 10 18 24 18 12 10 11 14 7 15 15 27 7 10 5 6 11 6 7 8 8 14 6 10 27 68 79 77 62 45 32 39 27 38 30 31 29 24 17 10 6
54 52 47 40 31 20 15 8 17 17 7 5 9 26 14 8 11 8 7 7 8 7 8 6 14 19 8 8 4 9 6 7 7 22 9 7 10 24 26 20 20 52 62 52 41 25 27 28 26 30 25 17 9 4
48 46 38 33 28 25 21 15 7 4 7 10 4 6 6 8 9 8 9 6 6 8 16 14 7 12 8 2 5 2 6 6 20 8 7 10 11 3 0 11 14 18 38 49 43 33 25 21 30 31 26 18 10 5
38 32 34 28 23 18 13 9 8 9 7 6 6 8 9 8 9 6 5 4 7 6 21 22 8 4 5 5 4 6 5 5 6 8 9 10 27 10 9 14 16 23 34 42 40 41 32 34 40 32 24 19 14 11
30 26 31 30 28 21 17 11 9 9 6 7 6 8 9 12 15 15 14 9 5 15 29 12 7 4 3 4 5 1 5 6 8 9 6 8 19 18 20 18 23 34 37 42 45 45 47 47 39 35 28 22 17 17
30 26 29 31 27 25 25 20 22 19 8 8 11 9 13 13 12 7 7 10 8 22 21 5 5 5 6 4 10 11 5 8 4 5 3 4 14 24 28 27 34 40 43 48 51 52 46 36 35 34 30 22 17 16
37 32 37 35 28 28 32 22 6 9 8 8 10 21 31 26 9 3 3 3 22 26 5 4 6 5 6 6 7 8 8 4 10 11 6 6 25 36 36 36 39 43 51 58 57 47 37 34 34 32 29 23 15 14
41 38 33 27 27 28 17 5 7 7 8 13 8 19 10 5 7 7 8 4 16 10 6 2 4 4 4 5 4 4 5 6 8 7 16 26 35 37 36 40 44 51 56 53 45 40 34 35 33 30 26 20 14 11
40 36 24 21 19 19 6 5 4 7 12 16 16 13 9 7 8 4 11 20 8 8 4 4 6 5 4 6 10 26 9 4 9 15 23 26 30 33 35 39 45 49 49 43 43 38 28 27 25 24 21 17 12 9
33 19 13 17 16 7 7 7 8 9 9 9 14 14 16 13 11 7 12 4 5 2 3 4 5 5 8 19 27 29 5 14 16 10 16 22 25 29 33 39 43 43 41 45 38 37 29 23 23 19 16 14 11 6
14 8 11 14 9 4 8 8 8 8 12 10 13 21 11 13 7 3 5 10 3 5 4 8 23 34 33 34 29 11 26 18 9 11 12 16 18 25 33 32 37 38 40 44 41 34 17 19 17 15 15 17 13 7
21 19 15 9 4 5 9 9 12 19 8 12 14 13 8 8 8 6 4 2 1 9 10 25 40 40 17 48 57 37 31 20 19 20 21 20 20 20 23 28 33 36 36 38 42 24 22 16 10 9 8 9 15 10
22 13 9 5 5 6 10 9 6 5 5 7 10 6 5 5 7 5 3 3 5 21 29 33 31 16 13 28 22 22 22 22 27 25 22 24 22 21 21 23 30 37 35 43 29 23 17 10 14 13 14 20 18 15
11 5 4 5 5 8 8 5 7 7 7 5 5 5 6 8 12 4 4 11 30 42 49 44 36 28 19 16 17 14 12 17 24 28 26 29 29 24 20 23 27 33 28 35 27 20 16 14 13 18 21 20 17 20
6 4 4 7 4 5 6 7 6 4 5 4 4 3 3 6 2 5 5 19 41 47 50 42 36 31 24 21 22 20 15 13 16 21 23 25 32 31 29 26 24 25 26 22 19 18 17 16 17 21 22 17 21 26
5 5 6 5 6 5 4 6 4 5 5 4 2 8 10 4 6 7 8 33 38 44 41 40 38 37 26 20 13 10 12 12 14 14 17 17 21 22 21 18 17 14 12 13 13 14 17 22 25 23 19 22 27 32
5 2 2 7 8 13 8 10 10 5 6 8 4 7 7 7 8 7 23 28 40 34 25 26 28 28 22 19 10 5 7 15 15 11 14 17 23 22 16 9 6 7 4 10 12 12 21 29 26 23 26 30 30 29
7 5 5 12 6 6 3 5 7 10 6 9 4 9 5 8 7 15 25 36 31 19 13 17 20 23 26 21 15 15 17 15 9 3 17 31 30 24 18 6 8 10 14 15 15 20 23 24 25 28 32 33 33 32
6 5 5 6 5 6 8 8 8 13 13 6 4 5 5 8 19 18 20 19 17 20 25 25 22 22 25 25 17 17 20 19 19 21 28 30 34 23 16 7 12 17 15 16 24 25 22 23 27 30 32 33 33 33
3 3 3 4 4 7 9 9 13 27 32 28 21 22 23 24 30 24 18 17 22 30 32 32 33 31 31 32 33 24 14 13 17 13 13 16 16 11 9 6 9 10 11 14 27 35 31 31 34 35 34 33 32 31
3 5 4 4 5 12 21 26 24 23 22 18 21 15 10 6 34 43 39 35 33 39 39 41 43 41 39 32 27 24 30 23 16 13 18 16 17 15 5 8 9 7 11 12 19 26 31 35 36 36 35 32 29 25
5 4 5 4 6 22 17 5 3 0 2 5 9 10 9 9 9 17 38 40 43 49 46 41 40 35 29 28 30 36 38 31 23 14 7 11 11 12 12 13 13 12 17 16 15 19 23 28 32 34 32 30 26 23
7 9 13 9 6 5 9 7 3 2 3 3 4 6 8 8 8 11 16 23 30 35 36 36 34 31 28 27 27 25 23 23 24 24 15 5 14 20 20 16 17 17 24 23 17 15 18 23 26 28 29 28 25 22
Wind_Direction_850mb
312 313 314 314 314 313 308 302 297 296 296 297 290 290 288 284 283 282 275 263 262 262 264 256 260 249 257 260 236 4 147 170 152 189 194 191 207 201 195 193 182 176 181 195 196 234 257 143 134 200 277 239 246 252
310 311 311 311 310 308 306 302 297 292 292 292 287 287 284 282 279 276 272 273 262 257 257 266 262 252 233 254 255 254 273 257 170 158 202 143 172 183 205 225 197 206 197 183 204 211 204 189 212 218 261 275 271 256
310 310 310 308 306 303 300 297 298 296 288 288 284 283 277 275 275 270 267 267 265 268 276 257 251 258 258 253 241 212 221 238 223 141 137 107 216 167 186 220 208 224 197 231 188 228 228 227 239 258 259 263 259 259
310 309 308 307 307 305 297 292 290 292 287 281 280 278 274 272 271 267 263 260 254 258 272 279 267 250 253 247 229 228 223 250 254 233 115 185 229 197 211 248 217 195 167 215 245 266 260 256 251 263 256 251 247 257
311 313 310 307 302 297 294 291 286 284 283 276 275 276 272 271 272 274 268 260 245 231 277 282 300 265 251 229 231 243 232 221 209 161 174 212 214 175 193 243 228 190 212 206 224 198 244 245 273 257 236 238 243 247
313 309 306 306 305 296 289 283 282 280 276 270 269 271 268 269 273 278 283 261 242 231 246 260 272 255 253 237 237 233 222 205 187 173 194 216 216 206 218 238 247 219 228 231 241 255 211 243 260 232 226 232 240 256
318 316 313 309 304 296 290 281 275 274 269 263 263 267 263 269 260 241 226 223 159 249 223 250 246 248 220 204 205 198 202 200 188 187 212 194 195 190 249 245 196 234 236 232 222 213 235 244 231 211 214 223 243 266
324 321 317 312 307 300 291 282 269 267 266 255 257 267 268 266 263 260 257 256 265 270 233 224 256 234 185 190 166 183 170 170 189 199 188 180 154 213 250 246 244 245 244 238 218 217 227 242 200 188 201 224 252 269
328 325 324 322 316 312 293 266 267 259 247 248 258 270 276 267 257 270 284 264 255 228 261 215 228 229 178 190 149 144 153 166 181 197 197 170 181 220 229 237 239 232 220 217 204 201 204 206 194 199 207 227 243 271
333 330 329 330 325 322 312 289 266 256 225 217 254 260 243 225 256 270 207 215 200 214 213 244 240 261 182 157 142 144 163 167 182 197 158 226 245 245 242 242 240 229 221 209 197 199 199 204 196 195 205 218 236 256
339 337 339 340 344 345 351 315 259 182 174 210 204 229 243 254 283 231 221 188 183 220 208 230 211 242 229 181 141 200 167 166 190 173 192 223 248 236 242 239 239 237 228 220 216 214 209 207 200 199 206 210 222 253
351 359 4 6 7 360 343 21 129 156 150 184 267 291 288 226 232 228 200 193 207 231 188 218 227 206 241 256 153 162 188 188 199 141 194 247 258 257 233 233 231 226 220 213 213 210 203 213 212 202 194 191 192 215
341 349 358 7 22 37 52 67 68 343 274 289 254 253 228 226 244 234 187 184 210 203 189 189 186 176 202 173 42 121 245 199 136 176 212 237 253 268 179 187 205 199 192 197 200 201 201 192 181 186 176 169 155 124
340 350 354 354 353 350 344 328 305 288 298 264 237 253 213 212 245 231 267 254 220 184 169 170 149 172 132 191 173 243 226 146 216 222 234 244 251 231 185 165 169 162 167 174 175 186 189 174 162 160 156 142 125 92
338 335 348 5 1 349 338 325 288 277 279 269 231 252 237 274 277 272 266 260 219 168 159 145 116 114 150 193 217 216 247 225 230 224 230 296 237 175 167 163 159 155 154 157 167 167 164 161 161 153 146 134 114 79
339 338 340 346 341 337 328 306 287 287 230 242 242 264 253 263 272 254 258 232 181 164 164 216 160 190 170 225 193 209 228 237 255 246 283 268 159 161 157 148 145 147 151 154 158 151 145 152 159 157 147 133 110 77
319 324 332 333 328 324 318 314 264 232 239 235 246 258 252 271 266 260 265 358 159 156 219 223 212 185 141 207 212 207 227 308 311 319 304 191 161 153 151 143 145 145 144 142 143 145 147 156 163 160 152 144 123 85
313 321 328 334 325 329 329 287 280 268 258 265 284 294 278 255 13 39 7 321 178 214 176 282 327 240 251 224 211 293 329 359 16 63 107 135 148 148 148 145 147 149 150 150 151 148 147 156 162 163 164 155 139 100
315 319 326 331 319 324 303 288 270 275 261 282 293 302 289 273 244 185 11 6 261 248 223 243 258 227 244 277 320 344 352 43 84 102 115 136 145 148 152 154 154 157 162 163 154 149 145 156 164 163 164 162 152 120
309 303 308 311 308 301 288 277 271 269 279 307 307 319 304 292 307 264 240 253 48 302 212 226 255 291 284 304 307 324 276 115 133 118 114 134 150 159 157 158 163 167 168 160 155 155 146 171 165 172 178 175 158 107
330 324 314 323 312 269 263 295 267 253 292 288 305 326 302 313 304 295 244 211 67 357 297 287 290 316 298 274 278 236 128 121 238 224 172 142 157 172 168 172 181 180 171 169 165 163 180 174 173 179 183 179 172 144
342 335 332 358 306 292 266 248 262 295 278 293 314 318 308 328 339 357 98 82 57 248 255 301 312 315 16 116 124 115 111 107 104 113 118 116 118 133 155 176 178 177 171 177 161 181 187 183 187 180 179 192 169 157
337 336 320 322 288 259 272 295 285 277 279 299 317 307 307 326 352 339 313 130 257 3 1 357 345 18 145 156 149 132 122 107 94 90 103 102 113 122 129 150 169 167 162 157 169 185 183 181 180 184 192 180 167 150
334 302 287 287 264 278 301 263 247 268 277 289 305 308 330 321 332 358 18 10 351 8 11 13 21 46 83 86 87 93 122 112 102 95 103 108 107 104 116 128 141 144 148 165 183 190 183 194 192 190 182 171 163 152
305 248 249 273 259 298 298 303 287 282 288 321 277 295 316 325 4 41 31 353 355 4 12 21 30 27 28 50 56 60 80 114 104 108 117 126 124 119 116 126 145 159 176 192 203 206 206 198 182 175 168 168 161 151
266 223 207 353 296 285 299 292 295 289 276 256 311 337 359 26 44 47 3 340 347 357 5 14 18 10 8 7 11 59 64 105 122 124 138 147 158 153 153 153 167 186 196 205 222 216 189 173 162 158 158 156 156 151
286 270 231 274 272 280 271 271 274 296 1 7 38 9 12 50 38 2 335 345 339 354 15 26 25 14 12 17 27 57 120 135 137 150 142 162 171 173 177 186 232 258 208 162 156 155 163 157 154 154 151 149 150 151
253 275 276 314 283 311 279 311 10 12 6 9 45 33 57 19 358 327 323 338 351 8 36 38 23 29 33 40 62 101 116 101 62 321 182 160 155 157 161 154 14 139 139 132 139 139 152 153 151 152 145 138 139 141
259 275 321 332 350 20 36 2 16 20 352 36 65 59 44 24 2 348 351 3 35 65 80 72 63 47 49 51 72 88 96 91 101 120 130 137 147 153 157 106 91 117 128 143 134 129 138 144 148 147 142 140 140 138
255 348 82 29 17 26 17 63 92 92 89 87 92 91 77 56 39 42 48 61 68 73 74 74 64 56 56 57 58 59 80 96 132 147 131 145 143 151 183 165 104 119 137 145 151 144 146 150 152 153 152 151 149 147
117 93 99 56 61 93 120 114 110 107 102 91 85 72 50 78 52 52 58 68 77 78 73 67 62 58 57 55 59 66 63 66 87 146 184 222 225 206 157 162 165 161 160 145 164 163 164 165 166 165 166 164 161 157
64 90 126 102 100 149 129 101 149 341 332 36 41 62 49 31 55 32 37 51 58 59 58 57 54 54 53 57 56 59 58 52 51 62 158 209 207 198 192 176 160 177 177 166 164 172 175 181 180 180 179 178 176 174
109 108 120 118 151 201 158 154 134 75 57 67 87 64 45 39 63 30 35 41 44 52 50 44 43 45 52 55 54 52 48 45 40 33 21 324 238 228 222 211 197 179 175 178 172 168 179 189 192 193 194 193 193 193